www.pogodaiklimat.ru

Погода и климат >> Архив погоды >> Австралия >> Западная Австралия >> Телфер


ПОГОДА в Телфере

  • Прогноз погоды в Телфере
  • Монитор погоды в Телфере

АРХИВ ПОГОДЫ в Телфере

Время (UTC), дата Ветер
(напр.,м/с)
 
Видим.   Явления Облачность Т
(С)
Тd
(С)
f
(%)
Тe
(С)
Тes
(С)
Комфортность P
(гПа)
Po
(гПа)
Тmin
(С)
Tmax
(С)
R
(мм)
R24
(мм)
S
(см)
22 13.01 СЗ 6 н/о 9/0
[]
+27.3 +18.9 60 +32 +33 очень
душно
1006.1 974.1
00 14.01 З 5 н/о н/о +32.1 +17.2 41 +36 +36 очень
душно
1005.7 973.7
01 14.01 ЮЗ 3 н/о н/о +35.4 +15.2 30 +37 +37 очень
душно
1005.9 973.9 +24.5
03 14.01 С 5 н/о н/о +37.8 +18.7 33 +42 +42 опасность
перегрева
1005.7 973.7
04 14.01 С 4 н/о н/о +38.8 +17.0 28 +41 +41 опасность
перегрева
1004.5 972.6
06 14.01 В 3 н/о н/о +41.3 +16.0 23 +43 +43 опасность
перегрева
1002.7 970.8
07 14.01 СВ 4 н/о н/о +42.2 +13.8 19 +42 +42 опасность
перегрева
1001.9 970.0
09 14.01 С 5 н/о н/о +41.9 +14.3 20 +42 +42 опасность
перегрева
1000.9 969.1
10 14.01 ЮВ 9 н/о 9/9 1500 м
[]
+36.5 +17.6 33 +40 +40 очень
душно
1002.4 970.5
12 14.01 З 3 н/о н/о +34.3 +17.9 38 +38 +38 очень
душно
1003.1 971.2
13 14.01 СЗ 4 н/о {туман} 9/0
[]
+34.3 +16.2 34 +37 +37 очень
душно
1003.6 971.7 +42.9
15 14.01 З 2 н/о н/о +34.6 +16.9 35 +38 +38 очень
душно
1003.4 971.5
16 14.01 СЗ 2 н/о {туман} 8/0
[]
+33.5 +17.2 38 +37 +37 очень
душно
1002.8 970.9
18 14.01 С 6 н/о н/о +32.8 +17.4 40 +37 +37 очень
душно
1004.0 972.1
19 14.01 С 6 н/о {туман} 9/0
[]
+31.6 +18.2 45 +36 +36 очень
душно
1003.7 971.8
21 14.01 СЗ 4 н/о н/о +29.9 +17.7 48 +34 +34 очень
душно
1004.1 972.2
22 14.01 СЗ 3 н/о н/о +29.7 +18.5 51 +35 +35 очень
душно
1005.2 973.2
00 15.01 З 3 н/о н/о +33.9 +18.4 40 +38 +38 очень
душно
1005.4 973.4
01 15.01 ЮЗ 3 н/о 1/0
[]
+36.8 +18.8 35 +41 +51 опасность
перегрева
1005.1 973.1 +29.0
03 15.01 З 3 н/о н/о +41.4 +15.4 22 +43 +43 опасность
перегрева
1004.4 972.5
04 15.01 С 6 н/о н/о +42.7 +15.0 20 +44 +44 опасность
перегрева
1003.7 971.8
06 15.01 В 5 н/о н/о +43.7 +14.1 18 +44 +44 опасность
перегрева
1002.1 970.2
07 15.01 С 5 н/о 1/0
[]
+43.7 +11.4 15 +43 +49 опасность
перегрева
1001.3 969.5
09 15.01 С 4 н/о н/о +43.0 +11.8 16 +42 +42 опасность
перегрева
1000.5 968.7
10 15.01 С 6 н/о 1/0
[]
+42.0 +11.9 17 +41 +41 опасность
перегрева
1000.8 969.0
12 15.01 СЗ 3 н/о н/о +38.4 +13.6 23 +39 +39 очень
душно
1002.9 971.0
13 15.01 СЗ 3 н/о 10/0
[]
+37.4 +14.0 25 +38 +38 душно 1003.2 971.3 +44.7
15 15.01 СЗ 6 н/о н/о +35.3 +18.8 38 +40 +40 очень
душно
1003.7 971.8
16 15.01 З 7 н/о 8/0
[]
+34.9 +18.5 38 +39 +39 очень
душно
1003.7 971.8
18 15.01 СЗ 5 н/о н/о +32.9 +18.3 42 +37 +37 очень
душно
1003.3 971.4
19 15.01 СЗ 5 н/о н/о +32.4 +17.8 42 +37 +37 очень
душно
1003.4 971.5
21 15.01 СЗ 2 н/о н/о +30.5 +18.2 48 +35 +35 очень
душно
1004.0 972.1
22 15.01 СЗ 4 н/о н/о +30.0 +18.4 50 +35 +35 очень
душно
1005.4 973.4
00 16.01 З 4 н/о н/о +34.9 +17.6 36 +38 +38 очень
душно
1005.6 973.6
01 16.01 З 4 н/о 3/0
[]
+36.4 +17.0 32 +39 +47 очень
душно
1005.9 973.9 +29.9
03 16.01 СВ 2 н/о н/о +40.6 +15.4 23 +42 +42 опасность
перегрева
1005.2 973.2
04 16.01 З 4 н/о н/о +41.3 +14.6 21 +42 +42 опасность
перегрева
1004.3 972.4
06 16.01 З 3 н/о н/о +41.4 +14.7 21 +42 +42 опасность
перегрева
1002.5 970.6
07 16.01 З 2 н/о 1/0
[]
+43.2 +14.6 19 +44 +55 опасность
перегрева
1001.2 969.4
09 16.01 СЗ 5 н/о н/о +41.7 +14.1 20 +42 +42 опасность
перегрева
1000.3 968.5
10 16.01 С 6 н/о 10/0
[]
+40.7 +14.1 21 +41 +41 опасность
перегрева
1000.9 969.1
12 16.01 С 9 н/о н/о +32.4 +18.6 44 +37 +37 очень
душно
1004.2 972.3
13 16.01 С 6 н/о 10/0
[]
+33.0 +17.6 40 +37 +37 очень
душно
1004.0 972.1 +43.8
15 16.01 З 8 н/о н/о +31.5 +15.9 39 +34 +34 душно 1006.2 974.2
16 16.01 З 6 4500 м 10/10 600 м
[]
+32.1 +16.0 38 +35 +35 очень
душно
1006.7 974.7
18 16.01 З 4 н/о н/о +28.5 +20.5 62 +35 +35 очень
душно
1005.6 973.6
19 16.01 З 6 н/о 9/0
[]
+27.6 +20.4 65 +34 +34 очень
душно
1005.4 973.4
21 16.01 З 8 н/о н/о +27.6 +20.9 67 +35 +35 очень
душно
1005.8 973.8
22 16.01 ЮЗ 6 н/о н/о +27.6 +20.9 67 +35 +35 очень
душно
1006.3 974.3
00 17.01 З 7 н/о н/о +31.4 +19.4 49 +37 +37 очень
душно
1007.2 975.2
01 17.01 ЮЗ 6 н/о н/о +33.7 +18.6 41 +38 +38 очень
душно
1007.2 975.2 +27.2
03 17.01 Ю 3 н/о н/о +37.9 +16.8 29 +40 +40 очень
душно
1006.3 974.3
04 17.01 Ю 3 н/о н/о +38.7 +16.9 28 +41 +41 опасность
перегрева
1005.1 973.1
06 17.01 З 3 н/о н/о +41.4 +16.1 23 +43 +43 опасность
перегрева
1003.1 971.2
07 17.01 В 4 н/о 10/0
[]
+40.9 +15.7 23 +42 +46 опасность
перегрева
1002.2 970.3
09 17.01 ЮЗ 9 н/о н/о +37.8 +16.7 29 +40 +40 очень
душно
1001.3 969.5
10 17.01 ЮЗ 6 н/о 1/0
[]
+38.4 +17.2 29 +41 +41 опасность
перегрева
1002.2 970.3
12 17.01 Ю 8 н/о н/о +37.3 +16.3 29 +39 +39 очень
душно
1003.5 971.6
13 17.01 Ю 8 н/о 9/0
[]
+35.7 +14.9 29 +37 +37 душно 1004.4 972.5 +42.4
15 17.01 В 8 н/о н/о +33.3 +16.2 36 +36 +36 очень
душно
1005.0 973.0
16 17.01 В 3 н/о 8/0
[]
+31.9 +16.2 39 +35 +35 очень
душно
1004.4 972.5
18 17.01 З 5 н/о н/о +31.2 +18.2 46 +36 +36 очень
душно
1004.4 972.5
19 17.01 СЗ 4 н/о 9/0
[]
+29.9 +19.6 54 +36 +36 очень
душно
1004.1 972.2
21 17.01 З 4 н/о н/о +29.7 +19.1 53 +35 +35 очень
душно
1005.4 973.4
22 17.01 СЗ 4 н/о 10/0
[]
+28.7 +20.4 61 +35 +36 очень
душно
1006.1 974.1
00 18.01 З 5 н/о н/о +31.5 +17.4 43 +35 +35 очень
душно
1006.5 974.5
01 18.01 З 4 н/о 3/0
[]
+35.0 +16.8 34 +38 +46 очень
душно
1006.9 974.9 +28.8
03 18.01 ЮВ 3 н/о н/о +37.7 +15.5 27 +39 +39 очень
душно
1007.0 975.0
04 18.01 З 4 н/о 10/0
[]
+37.1 +15.5 28 +39 +47 очень
душно
1006.4 974.4
06 18.01 Ю 4 н/о н/о +39.2 +15.6 25 +41 +41 опасность
перегрева
1004.8 972.8
07 18.01 Ю 4 н/о н/о +39.6 +15.2 24 +41 +41 опасность
перегрева
1004.0 972.1
09 18.01 СЗ 4 н/о н/о +39.4 +15.7 25 +41 +41 опасность
перегрева
1003.3 971.4
10 18.01 С 4 н/о н/о +38.6 +15.0 25 +40 +40 очень
душно
1003.2 971.3
12 18.01 С 3 н/о н/о +35.8 +15.5 30 +38 +38 очень
душно
1004.8 972.8
13 18.01 СЗ 3 н/о 5/0
[]
+34.7 +16.1 33 +37 +37 очень
душно
1005.4 973.4 +41.2
15 18.01 С 3 н/о н/о +33.4 +16.3 36 +36 +36 очень
душно
1006.1 974.1
16 18.01 С 2 н/о н/о +32.4 +16.3 38 +35 +35 душно 1005.9 973.9
18 18.01 В 2 н/о н/о +30.7 +16.3 42 +34 +34 очень
душно
1006.6 974.6
19 18.01 В 3 н/о 8/0
[]
+30.4 +16.4 43 +34 +34 очень
душно
1006.9 974.9
21 18.01 ЮВ 7 н/о н/о +30.1 +15.8 42 +33 +33 душно 1008.4 976.3
22 18.01 В 5 н/о н/о +29.9 +15.2 41 +32 +32 жарко 1009.4 977.3
00 19.01 В 7 н/о н/о +32.5 +15.1 35 +35 +35 душно 1009.8 977.7
01 19.01 В 7 н/о н/о +34.7 +15.1 31 +36 +36 душно 1010.0 977.9 +29.7
03 19.01 В 4 н/о н/о +38.5 +15.0 25 +40 +40 очень
душно
1008.8 976.7
04 19.01 В 4 н/о н/о +38.9 +14.7 24 +40 +40 очень
душно
1007.7 975.7
06 19.01 В 7 н/о н/о +40.6 +14.0 21 +41 +41 опасность
перегрева
1006.1 974.1
07 19.01 В 6 н/о 10/0
[]
+40.8 +14.2 21 +41 +43 опасность
перегрева
1005.3 973.3
09 19.01 В 5 н/о н/о +39.8 +13.4 21 +40 +40 очень
душно
1004.1 972.2
10 19.01 В 5 н/о 9/0
[]
+39.5 +13.1 21 +39 +40 очень
жарко
1004.8 972.8
12 19.01 В 3 н/о н/о +36.5 +13.3 25 +37 +37 очень
жарко
1006.5 974.5
13 19.01 ЮВ 3 н/о 9/0
[]
+36.4 +13.2 25 +37 +37 очень
жарко
1006.8 974.8 +42.5
15 19.01 ЮВ 4 н/о н/о +34.8 +14.1 29 +36 +36 душно 1007.1 975.1
16 19.01 ЮВ 4 н/о 10/0
[]
+35.4 +14.1 28 +36 +36 очень
жарко
1007.2 975.2
18 19.01 В 6 н/о н/о +34.7 +14.0 29 +36 +36 душно 1007.1 975.1
19 19.01 ЮВ 7 н/о 10/0
[]
+34.1 +14.6 31 +36 +36 душно 1007.3 975.3
21 19.01 В 6 н/о н/о +32.2 +14.3 34 +34 +34 душно 1007.6 975.6
22 19.01 В 5 н/о н/о +31.6 +14.3 35 +33 +33 жарко 1008.6 976.5
00 20.01 В 6 н/о н/о +34.9 +14.7 30 +36 +36 душно 1009.3 977.2
01 20.01 СВ 5 н/о н/о +35.7 +15.4 30 +37 +37 душно 1009.2 977.1 +31.7
03 20.01 В 4 н/о н/о +38.3 +16.6 28 +41 +41 опасность
перегрева
1008.1 976.0
04 20.01 В 6 н/о 8/0
[]
+39.4 +15.7 25 +41 +46 опасность
перегрева
1007.2 975.2
06 20.01 В 6 н/о н/о +40.6 +15.4 23 +42 +42 опасность
перегрева
1005.6 973.6
07 20.01 В 6 н/о 9/0
[]
+41.2 +14.5 21 +42 +45 опасность
перегрева
1004.8 972.8
09 20.01 ЮВ 8 н/о н/о +41.7 +12.5 18 +41 +41 опасность
перегрева
1003.8 971.9
10 20.01 ЮВ 5 н/о 10/0
[]
+40.5 +12.4 19 +40 +40 очень
жарко
1004.1 972.2
12 20.01 В 3 н/о н/о +36.5 +11.3 22 +36 +36 очень
жарко
1005.8 973.8
13 20.01 С 2 н/о 10/0
[]
+35.7 +14.4 28 +37 +37 душно 1006.2 974.2 +42.5
15 20.01 ЮЗ 2 н/о н/о +34.9 +15.7 32 +37 +37 очень
душно
1006.1 974.1
16 20.01 ЮЗ 3 н/о 10/0
[]
+35.4 +15.7 31 +37 +37 очень
душно
1005.3 973.3
18 20.01 З 5 н/о н/о +35.1 +15.4 31 +37 +37 очень
душно
1004.8 972.8
19 20.01 СВ 5 н/о 8/0 2000 м
[]
+33.9 +16.7 36 +37 +37 очень
душно
1005.2 973.2
21 20.01 ЮЗ 5 н/о н/о +33.1 +18.8 43 +38 +38 очень
душно
1004.5 972.6
22 20.01 З 4 н/о 1/0
[]
+33.0 +19.1 44 +38 +39 очень
душно
1005.3 973.3

 

Местоположение метеостанции Телфер (Западная Австралия, Австралия): широта -21.71 долгота 122.21 высота над уровнем моря 292 м.

В архиве по умолчанию представлена погода в Телфере за последнюю неделю. Архивные данные за месяц целиком и за предыдущие месяцы, начиная с января 2011 года, Вы можете получить, выбрав интересующий диапазон дат из раскрывающегося списка и нажав кнопку "Ввод!".


*Определитесь, кто Вы:
робот инопланетянин человек

Внимание! Время в таблицах - всемирное. Для получения местного времени необходимо прибавить поправку, которая равна 8 ч.

Смотрите также архив погоды в соседних городах и на ближайших метеорологических станциях:

Погода в Марбл-баре (Западная Австралия, Австралия) (261 км)
Погода в Мандоре (Западная Австралия, Австралия) (262 км)
Погода в Ньюмане (Западная Австралия, Австралия) (311 км)
Погода в Порт-Хедленде (Западная Австралия, Австралия) (401 км)
Погода в Бруме (Западная Австралия, Австралия) (418 км)
Погода в Робак Запад (Западная Австралия, Австралия) (424 км)
Погода в Параберду (Западная Австралия, Австралия) (486 км)
Погода на Базе ВВС Curtin (Западная Австралия, Австралия) (489 км)
Погода в Дерби (Северная территория, Австралия) (507 км)
Погода в Фицрой-Кроссинге (Западная Австралия, Австралия) (526 км)

Пояснения к столбцам:

Ветер - указаны скорость ветра в м/с - средняя за 10 мин, порывы в срок и между сроками (в фигурных скобках) и направление, откуда дует ветер: С - северный, СВ - северо-восточный, В - восточный, ЮВ - юго-восточный, Ю - южный, ЮЗ - юго-западный, З - западный, СЗ - северо-западный.
Видимость - горизонтальная дальность видимости в метрах или километрах. При видимости от 1 до 10 км при отсутствии осадков обычно наблюдается дымка, при ухудшении видимости до 1 км и менее - туман. В сухую погоду видимость может ухудшаться дымом, пылью или мглою.
Явления - указаны атмосферные явления, наблюдавшиеся в срок или в последний час перед сроком; фигурными скобками обозначены явления, наблюдавшиеся между сроками (за 1-3 часа до срока); квадратными скобками обозначены град или гололедные отложения с указанием их диаметра в мм.
Облачность - указаны через наклонную черту общая и нижняя облачность в баллах и высота нижней границы облаков в метрах; квадратными скобками обозначены формы облаков: Ci - перистые, Cs - перисто-слоистые, Cc - перисто-кучевые, Ac - высококучевые, As - высокослоистые, Sc - слоисто-кучевые, Ns - слоисто-дождевые, Cu - кучевые, Cb - кучево-дождевые. Подробнее классификацию облаков см. в Атласе облаков (PDF).
T - Температура воздуха - температура, измеренная на высоте 2 м над землей.
Td - Температура точки росы - температура, при понижении до которой содержащийся в воздухе водяной пар достигнет насыщения.
f - Относительная влажность воздуха - влажноcть воздуха, измеренная на высоте 2 м над землей.
Te - Эффективная температура - температура, которую ощущает одетый по сезону человек в тени. Характеристика душности погоды. При расчете учитывается влияние влажности воздуха и скорости ветра на теплоощущения человека.
Tes - Эффективная температура на солнце - температура, которую ощущает человек, с поправкой на солнечный нагрев. Характеристика знойности погоды. Зависит от высоты солнца над горизонтом, облачности и скорости ветра. Ночью, в пасмурную погоду, а также при ветре 12 м/с и более поправка равна нулю.
P - Атмосферное давление - приведенное к уровню моря атмосферное давление.
Po - Атмосферное давление - измеренное на уровне метеостанции атмосферное давление.
Tmin - Минимальная температура - минимум температуры воздуха на высоте 2 м над землей.
Tmax - Максимальная температура - максимум температуры воздуха на высоте 2 м над землей.
R - Количество осадков - Количество выпавших осадков за период времени, мм. При наведении курсора мыши на число - период времени, за который выпало указанное количество осадков.
R24 - Количество осадков - Количество выпавших осадков за 24 часа, мм.
S - Снежный покров - Высота снежного покрова, см. При наведении курсора мыши на число - состояние снежного покрова и степень покрытия местности в баллах.